Location: Larrial
(48.2758°N, 4.5331°W)
Time: 19:37:11
(UTC+00:00)

Cosmos 1340 Rocket - Pass Details

Date: 09 April 2020
Orbit: 529 x 559 km, 81.2° (Epoch: 02 June)

Event Time Altitude Azimuth Distance (km) Brightness Sun altitude
Rises 20:40:26 0° 206° (SSW) 2,727 6.3 -16.0°
Reaches altitude 10° 20:42:40 10° 212° (SSW) 1,833 5.5 -16.4°
Maximum altitude 20:46:33 45° 286° (WNW) 763 4.0 -16.9°
Drops below altitude 10° 20:50:27 10° 360° (N) 1,832 5.9 -17.4°
Sets 20:52:41 0° 7° (N) 2,725 6.8 -17.7°
